Capitol Logistics 2854


KORD
Chicago O'Hare International Airport
Chicago, Illinois, US
CYHZ
Robert L. Stanfield International Airport
Halifax, , CA

Activity Log

Date Flight Route Aircraft Duration
No Flights Yet

Route Details

Aircraft Information
Primary: Boeing 747-400BCF
Backup: Boeing 777-200LRF
Route Data
Distance: 1075nm
Sched. Duration: 2h 25m
Avg. Duration: 0h 00m (-225m)
Times Flown: 0
Recm'd Route: EBAKE PMM J547 FNT Q818 DERLO Q913 CABCI Q29 EBONY FUNDY3
Planned Altitude: 37,000ft
Origin Wx: KORD 030151Z 24012KT 10SM FEW200 BKN250 31/17 A2979 RMK AO2 SLP082 T03110167 $
Dest. Wx: CYHZ 030200Z 20009G15KT 15SM OVC090 10/02 A2974 RMK AC8 SLP075
Notes: OPERATED FOR SKYLEASE CARGO

Financial History
Total Freight: 0lbs
Average Load: 0lbs/flt
Fuel Used: 0lbs
Avg. Fuel Used: 0lbs/flt
Fuel Expense: $0
Avg. Fuel Expense: $0
Avg. Fuel Cost: $0/lbs
Total Gross Income: $0
Pilot Pay: $0
Total Expenses: $0
Total Revenue: $0
Average Revenue: $0